Location: Harwich
(41.7160°N, 69.9939°W)
Time: 13:48:17
(UTC+01:00)

A-11 Canister half - Pass Details

Date: 30 November 2023
Orbit: 1526 x 1682 km, 47.3° (Epoch: 01 March)

Event Time Altitude Azimuth Distance (km) Brightness Sun altitude
Rises 22:43:06 0° 167° (SSE) 4,908 11.8 -6.3°
Reaches altitude 10° 22:49:21 10° 139° (SE) 3,936 11.0 -7.3°
Maximum altitude 22:52:27 12° 121° (ESE) 3,796 10.7 -7.9°
Drops below altitude 10° 22:55:32 10° 102° (ESE) 3,938 10.6 -8.4°
Enters shadow 22:57:55 - 90° (E) 4,223 10.7 -8.8°
Sets 23:01:43 0° 74° (ENE) 4,916 - -9.5°
